| time (UTC) | temp F | wind direction | speed knots | gust knots | rain 1hr in | rain 24hr in | rain mn in | humidity % | barometer mb |
| 20260901063048 | 82 | 149 | 2.6 | 5.2 | 0.00 | 0.00 | 0.00 | 66 | 1007.7 |
| 20260901061533 | 82 | 148 | 1.7 | 4.3 | 0.00 | 0.00 | 0.00 | 65 | 1007.6 |
| 20260901060032 | 82 | 131 | 1.7 | 3.5 | 0.00 | 0.00 | 0.00 | 63 | 1007.5 |
| 20260901054531 | 83 | 151 | 2.6 | 5.2 | 0.00 | 0.00 | 0.00 | 61 | 1007.5 |
| 20260901053028 | 83 | 124 | 2.6 | 5.2 | 0.00 | 0.00 | 0.00 | 58 | 1007.4 |
| 20260901051526 | 83 | 141 | 1.7 | 5.2 | 0.00 | 0.00 | 0.00 | 56 | 1007.2 |
| 20260901050023 | 83 | 146 | 1.7 | 3.5 | 0.00 | 0.00 | 0.00 | 55 | 1007.0 |
| 20260901044531 | 83 | 150 | 2.6 | 4.3 | 0.00 | 0.00 | 0.00 | 54 | 1006.9 |
| 20260901043021 | 83 | 136 | 2.6 | 6.1 | 0.00 | 0.00 | 0.00 | 52 | 1006.9 |
| 20260901041527 | 84 | 127 | 0.9 | 2.6 | 0.00 | 0.00 | 0.00 | 50 | 1006.8 |
| 20260901040024 | 84 | 121 | 0.9 | 2.6 | 0.00 | 0.00 | 0.00 | 49 | 1006.6 |
| 20260901034534 | 84 | 120 | 0.0 | 0.0 | 0.00 | 0.00 | 0.00 | 49 | 1006.5 |
| 20260901033025 | 85 | 120 | 0.0 | 0.9 | 0.00 | 0.00 | 0.00 | 48 | 1006.5 |
| 20260901031530 | 85 | 120 | 0.0 | 0.0 | 0.00 | 0.00 | 0.00 | 48 | 1006.4 |
| 20260901030022 | 86 | 120 | 0.0 | 0.0 | 0.00 | 0.00 | 0.00 | 47 | 1006.2 |
| 20260901024518 | 87 | 121 | 0.0 | 1.7 | 0.00 | 0.00 | 0.00 | 47 | 1006.1 |
| 20260901023017 | 87 | 120 | 0.0 | 0.0 | 0.00 | 0.00 | 0.00 | 46 | 1006.0 |
| 20260901021518 | 88 | 121 | 0.0 | 0.9 | 0.00 | 0.00 | 0.00 | 45 | 1005.8 |
| 20260901020017 | 89 | 121 | 0.0 | 0.0 | 0.00 | 0.00 | 0.00 | 44 | 1005.7 |
| 20260901014515 | 90 | 120 | 0.0 | 1.7 | 0.00 | 0.00 | 0.00 | 42 | 1005.5 |
| 20260901013015 | 92 | 120 | 0.0 | 1.7 | 0.00 | 0.00 | 0.00 | 40 | 1005.4 |
| 20260901011517 | 93 | 121 | 0.9 | 3.5 | 0.00 | 0.00 | 0.00 | 38 | 1005.3 |
| 20260901010026 | 94 | 123 | 0.9 | 3.5 | 0.00 | 0.00 | 0.00 | 38 | 1005.2 |
| 20260901004518 | 95 | 116 | 2.6 | 7.0 | 0.00 | 0.00 | 0.00 | 37 | 1005.3 |
| 20260901003016 | 96 | 114 | 4.3 | 11.3 | 0.00 | 0.00 | 0.00 | 36 | 1005.2 |
| 20260901001515 | 97 | 111 | 4.3 | 7.8 | 0.00 | 0.00 | 0.00 | 35 | 1005.3 |
| 20260901000011 | 97 | 143 | 4.3 | 9.6 | 0.00 | 0.00 | 0.00 | 34 | 1005.2 |
| 20260831234511 | 97 | 137 | 4.3 | 8.7 | 0.00 | 0.00 | 0.00 | 35 | 1005.2 |
| 20260831233010 | 97 | 129 | 4.3 | 9.6 | 0.00 | 0.00 | 0.00 | 35 | 1005.2 |
| 20260831231511 | 98 | 132 | 6.1 | 12.2 | 0.00 | 0.00 | 0.00 | 34 | 1005.2 |
| 20260831230007 | 99 | 134 | 0.9 | 10.4 | 0.00 | 0.00 | 0.00 | 32 | 1005.2 |
| 20260831224507 | 99 | 84 | 6.1 | 12.2 | 0.00 | 0.00 | 0.00 | 30 | 1005.3 |
| 20260831223006 | 99 | 82 | 4.3 | 10.4 | 0.00 | 0.00 | 0.00 | 30 | 1005.4 |
| 20260831221505 | 100 | 126 | 3.5 | 7.8 | 0.00 | 0.00 | 0.00 | 31 | 1005.5 |
| 20260831220004 | 99 | 66 | 4.3 | 10.4 | 0.00 | 0.00 | 0.00 | 31 | 1005.5 |
| 20260831214501 | 99 | 153 | 3.5 | 9.6 | 0.00 | 0.00 | 0.00 | 29 | 1005.7 |
| 20260831213104 | 99 | 138 | 3.5 | 9.6 | 0.00 | 0.00 | 0.00 | 30 | 1005.8 |
| 20260831211601 | 99 | 82 | 6.1 | 10.4 | 0.00 | 0.00 | 0.00 | 32 | 1005.9 |
| 20260831210057 | 99 | 101 | 3.5 | 13.0 | 0.00 | 0.00 | 0.00 | 32 | 1006.2 |
| 20260831204558 | 99 | 146 | 2.6 | 9.6 | 0.00 | 0.00 | 0.00 | 34 | 1006.5 |
| 20260831203059 | 99 | 67 | 4.3 | 8.7 | 0.00 | 0.00 | 0.00 | 35 | 1006.7 |
| 20260831201558 | 97 | 103 | 2.6 | 10.4 | 0.00 | 0.00 | 0.00 | 36 | 1007.0 |
| 20260831200049 | 98 | 116 | 7.0 | 12.2 | 0.00 | 0.00 | 0.00 | 36 | 1007.2 |
| 20260831194547 | 98 | 129 | 2.6 | 13.0 | 0.00 | 0.00 | 0.00 | 37 | 1007.3 |
| 20260831193112 | 97 | 132 | 4.3 | 12.2 | 0.00 | 0.00 | 0.00 | 39 | 1007.4 |
| 20260831191542 | 97 | 120 | 6.1 | 13.0 | 0.00 | 0.00 | 0.00 | 39 | 1007.6 |
| 20260831190046 | 96 | 143 | 5.2 | 10.4 | 0.00 | 0.00 | 0.00 | 40 | 1007.8 |
| 20260831184540 | 97 | 98 | 1.7 | 10.4 | 0.00 | 0.00 | 0.00 | 39 | 1007.9 |
| 20260831183041 | 96 | 133 | 7.0 | 13.9 | 0.00 | 0.00 | 0.00 | 41 | 1008.1 |
| 20260831181549 | 95 | 102 | 6.1 | 13.0 | 0.00 | 0.00 | 0.00 | 41 | 1008.3 |
| 20260831180038 | 95 | 146 | 7.0 | 13.0 | 0.00 | 0.00 | 0.00 | 42 | 1008.5 |
| 20260831174535 | 94 | 147 | 4.3 | 13.0 | 0.00 | 0.00 | 0.00 | 44 | 1008.8 |
| 20260831173033 | 95 | 111 | 5.2 | 9.6 | 0.00 | 0.00 | 0.00 | 44 | 1009.0 |
| 20260831171529 | 94 | 147 | 5.2 | 11.3 | 0.00 | 0.00 | 0.00 | 47 | 1009.3 |
| 20260831170028 | 93 | 127 | 5.2 | 8.7 | 0.00 | 0.00 | 0.00 | 48 | 1009.3 |
| 20260831164523 | 92 | 169 | 3.5 | 7.8 | 0.00 | 0.00 | 0.00 | 51 | 1009.3 |
| 20260831163021 | 91 | 156 | 5.2 | 9.6 | 0.00 | 0.00 | 0.00 | 51 | 1009.4 |
| 20260831161534 | 90 | 105 | 4.3 | 11.3 | 0.00 | 0.00 | 0.00 | 52 | 1009.4 |
| 20260831160019 | 90 | 256 | 4.3 | 9.6 | 0.00 | 0.00 | 0.00 | 55 | 1009.4 |
| 20260831154513 | 89 | 272 | 1.7 | 7.0 | 0.00 | 0.00 | 0.00 | 60 | 1009.3 |
| 20260831153010 | 88 | 248 | 0.9 | 7.0 | 0.00 | 0.00 | 0.00 | 65 | 1009.2 |
| 20260831151506 | 87 | 259 | 3.5 | 8.7 | 0.00 | 0.00 | 0.00 | 67 | 1009.1 |
| 20260831150002 | 85 | 261 | 2.6 | 7.8 | 0.00 | 0.00 | 0.00 | 72 | 1009.1 |
| 20260831144603 | 85 | 265 | 6.1 | 9.6 | 0.00 | 0.00 | 0.00 | 73 | 1009.2 |
| 20260831143057 | 84 | 192 | 4.3 | 8.7 | 0.00 | 0.00 | 0.00 | 75 | 1009.0 |
| 20260831141555 | 83 | 216 | 4.3 | 7.8 | 0.00 | 0.00 | 0.00 | 78 | 1009.0 |
| 20260831140055 | 82 | 248 | 3.5 | 7.8 | 0.00 | 0.00 | 0.00 | 80 | 1008.9 |
| 20260831134559 | 81 | 193 | 2.6 | 7.0 | 0.00 | 0.00 | 0.00 | 83 | 1008.9 |
| 20260831133051 | 80 | 140 | 2.6 | 6.1 | 0.00 | 0.00 | 0.00 | 84 | 1008.7 |
| 20260831131558 | 78 | 158 | 0.0 | 5.2 | 0.00 | 0.00 | 0.00 | 87 | 1008.6 |
| 20260831130048 | 78 | 145 | 0.0 | 3.5 | 0.00 | 0.00 | 0.00 | 88 | 1008.4 |
| 20260831124544 | 0 | 0.0 | 0.0 | 0.00 | 0.00 | 0.00 | 1008.3 | ||
| 20260831123043 | 0 | 0.0 | 0.0 | 0.00 | 0.00 | 0.00 | 1008.2 | ||
| 20260831121535 | 0 | 0.0 | 0.0 | 0.00 | 0.00 | 0.00 | 1008.1 | ||
| 20260831120030 | 0 | 0.0 | 0.0 | 0.00 | 0.00 | 0.00 | 1007.9 | ||
| 20260831114526 | 0 | 0.0 | 0.0 | 0.00 | 0.00 | 0.00 | 1007.7 | ||
| 20260831113022 | 0 | 0.0 | 0.0 | 0.00 | 0.00 | 0.00 | 1007.6 | ||
| 20260831111516 | 0 | 0.0 | 0.0 | 0.00 | 0.00 | 0.00 | 1007.5 | ||
| 20260831110014 | 0 | 0.0 | 0.0 | 0.00 | 0.00 | 0.00 | 1007.3 | ||
| 20260831104518 | 0 | 0.0 | 0.0 | 0.00 | 0.00 | 0.00 | 1007.4 | ||
| 20260831103008 | 0 | 0.0 | 0.0 | 0.00 | 0.00 | 0.00 | 1007.4 | ||
| 20260831101559 | 0 | 0.0 | 0.0 | 0.00 | 0.00 | 0.00 | 1007.3 | ||
| 20260831100107 | 0 | 0.0 | 0.0 | 0.00 | 0.00 | 0.00 | 1007.4 | ||
| 20260831094550 | 77 | 151 | 1.7 | 4.3 | 0.00 | 0.00 | 0.00 | 81 | 1007.2 |
| 20260831093055 | 78 | 169 | 1.7 | 5.2 | 0.00 | 0.00 | 0.00 | 82 | 1007.2 |
| 20260831091546 | 78 | 170 | 1.7 | 5.2 | 0.00 | 0.00 | 0.00 | 80 | 1007.2 |
| 20260831090047 | 79 | 167 | 2.6 | 5.2 | 0.00 | 0.00 | 0.00 | 78 | 1007.2 |
| 20260831084539 | 79 | 152 | 2.6 | 4.3 | 0.00 | 0.00 | 0.00 | 76 | 1007.1 |
| 20260831083050 | 80 | 115 | 1.7 | 5.2 | 0.00 | 0.00 | 0.00 | 75 | 1007.1 |
| 20260831081535 | 80 | 162 | 1.7 | 5.2 | 0.00 | 0.00 | 0.00 | 74 | 1007.0 |
| 20260831080054 | 81 | 142 | 2.6 | 5.2 | 0.00 | 0.00 | 0.00 | 73 | 1007.0 |
| 20260831074531 | 81 | 161 | 2.6 | 6.1 | 0.00 | 0.00 | 0.00 | 72 | 1007.1 |
| 20260831073027 | 82 | 148 | 3.5 | 7.8 | 0.00 | 0.00 | 0.00 | 71 | 1007.3 |
| 20260831071540 | 83 | 147 | 1.7 | 5.2 | 0.00 | 0.00 | 0.00 | 70 | 1007.3 |
| 20260831070024 | 83 | 150 | 3.5 | 7.8 | 0.00 | 0.00 | 0.00 | 69 | 1007.3 |
| 20260831064521 | 83 | 174 | 4.3 | 8.7 | 0.00 | 0.00 | 0.00 | 68 | 1007.2 |